Year,Month,Day,Hour,Minute,Value (Times are PST for temperature in C)
2010,08,05,00,00,18.30
2010,08,05,00,01,18.20
2010,08,05,00,02,18.20
2010,08,05,00,03,18.20
2010,08,05,00,04,18.20
2010,08,05,00,05,18.20
2010,08,05,00,06,18.20
2010,08,05,00,07,18.20
2010,08,05,00,08,18.10
2010,08,05,00,09,18.10
2010,08,05,00,10,18.10
2010,08,05,00,11,18.00
2010,08,05,00,12,17.90
2010,08,05,00,13,17.90
2010,08,05,00,14,17.90
2010,08,05,00,15,17.90
2010,08,05,00,16,17.90
2010,08,05,00,17,17.90
2010,08,05,00,18,17.90
2010,08,05,00,19,17.90
2010,08,05,00,20,17.90
2010,08,05,00,21,17.90
2010,08,05,00,22,17.80
2010,08,05,00,23,17.80
2010,08,05,00,24,17.80
2010,08,05,00,25,17.70
2010,08,05,00,26,17.70
2010,08,05,00,27,17.70
2010,08,05,00,28,17.60
2010,08,05,00,29,17.60
2010,08,05,00,30,17.60
2010,08,05,00,31,17.60
2010,08,05,00,32,17.60
2010,08,05,00,33,17.60
2010,08,05,00,34,17.60
2010,08,05,00,35,17.60
2010,08,05,00,36,17.60
2010,08,05,00,37,17.60
2010,08,05,00,38,17.50
2010,08,05,00,39,17.50
2010,08,05,00,40,17.50
2010,08,05,00,41,17.50
2010,08,05,00,42,17.50
2010,08,05,00,43,17.50
2010,08,05,00,44,17.60
2010,08,05,00,45,17.60
2010,08,05,00,46,17.60
2010,08,05,00,47,17.60
2010,08,05,00,48,17.50
2010,08,05,00,49,17.50
2010,08,05,00,50,17.50
2010,08,05,00,51,17.50
2010,08,05,00,52,17.50
2010,08,05,00,53,17.50
2010,08,05,00,54,17.40
2010,08,05,00,55,17.40
2010,08,05,00,56,17.30
2010,08,05,00,57,17.30
2010,08,05,00,58,17.30
2010,08,05,00,59,17.20
2010,08,05,01,00,17.20
2010,08,05,01,01,17.10
2010,08,05,01,02,17.10
2010,08,05,01,03,17.00
2010,08,05,01,04,17.00
2010,08,05,01,05,16.90
2010,08,05,01,06,16.90
2010,08,05,01,07,16.80
2010,08,05,01,08,16.80
2010,08,05,01,09,16.70
2010,08,05,01,10,16.70
2010,08,05,01,11,16.60
2010,08,05,01,12,16.60
2010,08,05,01,13,16.60
2010,08,05,01,14,16.40
2010,08,05,01,15,16.40
2010,08,05,01,16,16.40
2010,08,05,01,17,16.40
2010,08,05,01,18,16.30
2010,08,05,01,19,16.30
2010,08,05,01,20,16.30
2010,08,05,01,21,16.30
2010,08,05,01,22,16.20
2010,08,05,01,23,16.20
2010,08,05,01,24,16.20
2010,08,05,01,25,16.20
2010,08,05,01,26,16.10
2010,08,05,01,27,16.10
2010,08,05,01,28,16.10
2010,08,05,01,29,16.10
2010,08,05,01,30,16.10
2010,08,05,01,31,16.10
2010,08,05,01,32,16.10
2010,08,05,01,33,16.10
2010,08,05,01,34,15.90
2010,08,05,01,35,15.90
2010,08,05,01,36,15.90
2010,08,05,01,37,15.90
2010,08,05,01,38,15.80
2010,08,05,01,39,15.80
2010,08,05,01,40,15.80
2010,08,05,01,41,15.80
2010,08,05,01,42,15.80
2010,08,05,01,43,15.80
2010,08,05,01,44,15.80
2010,08,05,01,45,15.70
2010,08,05,01,46,15.70
2010,08,05,01,47,15.70
2010,08,05,01,48,15.70
2010,08,05,01,49,15.70
2010,08,05,01,50,15.70
2010,08,05,01,51,15.70
2010,08,05,01,52,15.70
2010,08,05,01,53,15.80
2010,08,05,01,54,15.80
2010,08,05,01,55,15.80
2010,08,05,01,56,15.80
2010,08,05,01,57,15.80
2010,08,05,01,58,15.80
2010,08,05,01,59,15.80
2010,08,05,02,00,15.80
2010,08,05,02,01,15.80
2010,08,05,02,02,15.80
2010,08,05,02,03,15.80
2010,08,05,02,04,15.80
2010,08,05,02,05,15.80
2010,08,05,02,06,15.80
2010,08,05,02,07,15.80
2010,08,05,02,08,15.80
2010,08,05,02,09,15.90
2010,08,05,02,10,15.90
2010,08,05,02,11,15.90
2010,08,05,02,12,15.90
2010,08,05,02,13,15.90
2010,08,05,02,14,15.90
2010,08,05,02,15,15.90
2010,08,05,02,16,15.90
2010,08,05,02,17,15.80
2010,08,05,02,18,15.80
2010,08,05,02,19,15.80
2010,08,05,02,20,15.80
2010,08,05,02,21,15.80
2010,08,05,02,22,15.80
2010,08,05,02,23,15.80
2010,08,05,02,24,15.80
2010,08,05,02,25,15.80
2010,08,05,02,26,15.80
2010,08,05,02,27,15.80
2010,08,05,02,28,15.80
2010,08,05,02,29,15.80
2010,08,05,02,30,15.90
2010,08,05,02,31,15.90
2010,08,05,02,32,15.90
2010,08,05,02,33,15.90
2010,08,05,02,34,15.90
2010,08,05,02,35,15.90
2010,08,05,02,36,15.90
2010,08,05,02,37,15.90
2010,08,05,02,38,15.90
2010,08,05,02,39,15.90
2010,08,05,02,40,15.90
2010,08,05,02,41,15.90
2010,08,05,02,42,15.90
2010,08,05,02,43,15.90
2010,08,05,02,44,15.90
2010,08,05,02,45,16.00
2010,08,05,02,46,16.10
2010,08,05,02,47,16.10
2010,08,05,02,48,16.10
2010,08,05,02,49,16.10
2010,08,05,02,50,16.00
2010,08,05,02,51,15.90
2010,08,05,02,52,15.90
2010,08,05,02,53,16.00
2010,08,05,02,54,16.10
2010,08,05,02,55,16.10
2010,08,05,02,56,16.00
2010,08,05,02,57,15.90
2010,08,05,02,58,15.90
2010,08,05,02,59,15.90
2010,08,05,03,00,15.90
2010,08,05,03,01,15.90
2010,08,05,03,02,15.90
2010,08,05,03,03,15.80
2010,08,05,03,04,15.80
2010,08,05,03,05,15.80
2010,08,05,03,06,15.80
2010,08,05,03,07,15.80
2010,08,05,03,08,15.80
2010,08,05,03,09,15.80
2010,08,05,03,10,15.80
2010,08,05,03,11,15.80
2010,08,05,03,12,15.80
2010,08,05,03,13,15.80
2010,08,05,03,14,15.80
2010,08,05,03,15,15.80
2010,08,05,03,16,15.80
2010,08,05,03,17,15.80
2010,08,05,03,18,15.80
2010,08,05,03,19,15.80
2010,08,05,03,20,15.80
2010,08,05,03,21,15.80
2010,08,05,03,22,15.80
2010,08,05,03,23,15.80
2010,08,05,03,24,15.80
2010,08,05,03,25,15.70
2010,08,05,03,26,15.70
2010,08,05,03,27,15.70
2010,08,05,03,28,15.70
2010,08,05,03,29,15.70
2010,08,05,03,30,15.70
2010,08,05,03,31,15.70
2010,08,05,03,32,15.70
2010,08,05,03,33,15.70
2010,08,05,03,34,15.70
2010,08,05,03,35,15.70
2010,08,05,03,36,15.70
2010,08,05,03,37,15.60
2010,08,05,03,38,15.60
2010,08,05,03,39,15.60
2010,08,05,03,40,15.60
2010,08,05,03,41,15.50
2010,08,05,03,42,15.50
2010,08,05,03,43,15.50
2010,08,05,03,44,15.50
2010,08,05,03,45,15.50
2010,08,05,03,46,15.40
2010,08,05,03,47,15.40
2010,08,05,03,48,15.40
2010,08,05,03,49,15.40
2010,08,05,03,50,15.40
2010,08,05,03,51,15.40
2010,08,05,03,52,15.40
2010,08,05,03,53,15.40
2010,08,05,03,54,15.30
2010,08,05,03,55,15.30
2010,08,05,03,56,15.30
2010,08,05,03,57,15.30
2010,08,05,03,58,15.30
2010,08,05,03,59,15.30
2010,08,05,04,00,15.30
2010,08,05,04,01,15.30
2010,08,05,04,02,15.30
2010,08,05,04,03,15.30
2010,08,05,04,04,15.30
2010,08,05,04,05,15.30
2010,08,05,04,06,15.30
2010,08,05,04,07,15.30
2010,08,05,04,08,15.30
2010,08,05,04,09,15.40
2010,08,05,04,10,15.40
2010,08,05,04,11,15.40
2010,08,05,04,12,15.40
2010,08,05,04,13,15.40
2010,08,05,04,14,15.40
2010,08,05,04,15,15.40
2010,08,05,04,16,15.50
2010,08,05,04,17,15.50
2010,08,05,04,18,15.50
2010,08,05,04,19,15.50
2010,08,05,04,20,15.50
2010,08,05,04,21,15.50
2010,08,05,04,22,15.50
2010,08,05,04,23,15.50
2010,08,05,04,24,15.50
2010,08,05,04,25,15.40
2010,08,05,04,26,15.40
2010,08,05,04,27,15.40
2010,08,05,04,28,15.40
2010,08,05,04,29,15.40
2010,08,05,04,30,15.40
2010,08,05,04,31,15.40
2010,08,05,04,32,15.30
2010,08,05,04,33,15.30
2010,08,05,04,34,15.30
2010,08,05,04,35,15.30
2010,08,05,04,36,15.30
2010,08,05,04,37,15.30
2010,08,05,04,38,15.30
2010,08,05,04,39,15.30
2010,08,05,04,40,15.30
2010,08,05,04,41,15.30
2010,08,05,04,42,15.30
2010,08,05,04,43,15.30
2010,08,05,04,44,15.30
2010,08,05,04,45,15.30
2010,08,05,04,46,15.20
2010,08,05,04,47,15.20
2010,08,05,04,48,15.20
2010,08,05,04,49,15.20
2010,08,05,04,50,15.20
2010,08,05,04,51,15.20
2010,08,05,04,52,15.20
2010,08,05,04,53,15.20
2010,08,05,04,54,15.20
2010,08,05,04,55,15.20
2010,08,05,04,56,15.10
2010,08,05,04,57,15.10
2010,08,05,04,58,15.10
2010,08,05,04,59,15.10
2010,08,05,05,00,15.10
2010,08,05,05,01,15.10
2010,08,05,05,02,15.10
2010,08,05,05,03,15.10
2010,08,05,05,04,15.10
2010,08,05,05,05,15.10
2010,08,05,05,06,15.10
2010,08,05,05,07,15.10
2010,08,05,05,08,15.10
2010,08,05,05,09,15.10
2010,08,05,05,10,15.10
2010,08,05,05,11,15.10
2010,08,05,05,12,15.10
2010,08,05,05,13,15.20
2010,08,05,05,14,15.20
2010,08,05,05,15,15.10
2010,08,05,05,16,15.10
2010,08,05,05,17,15.10
2010,08,05,05,18,15.10
2010,08,05,05,19,15.10
2010,08,05,05,20,15.10
2010,08,05,05,21,15.10
2010,08,05,05,22,15.00
2010,08,05,05,23,15.00
2010,08,05,05,24,15.00
2010,08,05,05,25,15.00
2010,08,05,05,26,15.00
2010,08,05,05,27,15.00
2010,08,05,05,28,15.00
2010,08,05,05,29,15.00
2010,08,05,05,30,14.90
2010,08,05,05,31,14.90
2010,08,05,05,32,14.90
2010,08,05,05,33,14.90
2010,08,05,05,34,14.90
2010,08,05,05,35,14.90
2010,08,05,05,36,14.90
2010,08,05,05,37,14.90
2010,08,05,05,38,14.90
2010,08,05,05,39,14.80
2010,08,05,05,40,14.80
2010,08,05,05,41,14.80
2010,08,05,05,42,14.80
2010,08,05,05,43,14.80
2010,08,05,05,44,14.80
2010,08,05,05,45,14.80
2010,08,05,05,46,14.80
2010,08,05,05,47,14.90
2010,08,05,05,48,14.90
2010,08,05,05,49,14.90
2010,08,05,05,50,14.90
2010,08,05,05,51,14.90
2010,08,05,05,52,15.00
2010,08,05,05,53,15.00
2010,08,05,05,54,15.00
2010,08,05,05,55,15.10
2010,08,05,05,56,15.10
2010,08,05,05,57,15.10
2010,08,05,05,58,15.20
2010,08,05,05,59,15.20
2010,08,05,06,00,15.20
2010,08,05,06,01,15.20
2010,08,05,06,02,15.20
2010,08,05,06,03,15.20
2010,08,05,06,04,15.20
2010,08,05,06,05,15.20
2010,08,05,06,06,15.20
2010,08,05,06,07,15.20
2010,08,05,06,08,15.20
2010,08,05,06,09,15.20
2010,08,05,06,10,15.20
2010,08,05,06,11,15.20
2010,08,05,06,12,15.20
2010,08,05,06,13,15.20
2010,08,05,06,14,15.20
2010,08,05,06,15,15.20
2010,08,05,06,16,15.20
2010,08,05,06,17,15.10
2010,08,05,06,18,15.10
2010,08,05,06,19,15.10
2010,08,05,06,20,15.10
2010,08,05,06,21,15.10
2010,08,05,06,22,15.10
2010,08,05,06,23,15.10
2010,08,05,06,24,15.10
2010,08,05,06,25,15.10
2010,08,05,06,26,15.00
2010,08,05,06,27,15.00
2010,08,05,06,28,15.00
2010,08,05,06,29,15.00
2010,08,05,06,30,14.90
2010,08,05,06,31,14.90
2010,08,05,06,32,14.90
2010,08,05,06,33,14.90
2010,08,05,06,34,14.90
2010,08,05,06,35,14.90
2010,08,05,06,36,14.90
2010,08,05,06,37,14.90
2010,08,05,06,38,14.90
2010,08,05,06,39,14.90
2010,08,05,06,40,14.90
2010,08,05,06,41,14.90
2010,08,05,06,42,14.90
2010,08,05,06,43,14.90
2010,08,05,06,44,14.90
2010,08,05,06,45,15.00
2010,08,05,06,46,15.00
2010,08,05,06,47,15.00
2010,08,05,06,48,15.00
2010,08,05,06,49,15.00
2010,08,05,06,50,15.00
2010,08,05,06,51,15.00
2010,08,05,06,52,15.00
2010,08,05,06,53,15.00
2010,08,05,06,54,15.00
2010,08,05,06,55,15.00
2010,08,05,06,56,15.00
2010,08,05,06,57,15.00
2010,08,05,06,58,15.00
2010,08,05,06,59,15.10
2010,08,05,07,00,15.10
2010,08,05,07,01,15.10
2010,08,05,07,02,15.10
2010,08,05,07,03,15.20
2010,08,05,07,04,15.20
2010,08,05,07,05,15.20
2010,08,05,07,06,15.20
2010,08,05,07,07,15.30
2010,08,05,07,08,15.30
2010,08,05,07,09,15.30
2010,08,05,07,10,15.30
2010,08,05,07,11,15.30
2010,08,05,07,12,15.40
2010,08,05,07,13,15.40
2010,08,05,07,14,15.50
2010,08,05,07,15,15.50
2010,08,05,07,16,15.60
2010,08,05,07,17,15.60
2010,08,05,07,18,15.70
2010,08,05,07,19,15.80
2010,08,05,07,20,15.80
2010,08,05,07,21,15.80
2010,08,05,07,22,15.80
2010,08,05,07,23,15.80
2010,08,05,07,24,15.80
2010,08,05,07,25,15.90
2010,08,05,07,26,15.90
2010,08,05,07,27,15.90
2010,08,05,07,28,16.00
2010,08,05,07,29,16.10
2010,08,05,07,30,16.10
2010,08,05,07,31,16.20
2010,08,05,07,32,16.20
2010,08,05,07,33,16.30
2010,08,05,07,34,16.40
2010,08,05,07,35,16.40
2010,08,05,07,36,16.50
2010,08,05,07,37,16.60
2010,08,05,07,38,16.60
2010,08,05,07,39,16.70
2010,08,05,07,40,16.70
2010,08,05,07,41,16.70
2010,08,05,07,42,16.70
2010,08,05,07,43,16.80
2010,08,05,07,44,16.80
2010,08,05,07,45,16.80
2010,08,05,07,46,16.90
2010,08,05,07,47,16.90
2010,08,05,07,48,17.00
2010,08,05,07,49,17.00
2010,08,05,07,50,17.10
2010,08,05,07,51,17.20
2010,08,05,07,52,17.20
2010,08,05,07,53,17.30
2010,08,05,07,54,17.30
2010,08,05,07,55,17.30
2010,08,05,07,56,17.40
2010,08,05,07,57,17.50
2010,08,05,07,58,17.50
2010,08,05,07,59,17.60
2010,08,05,08,00,17.70
2010,08,05,08,01,17.70
2010,08,05,08,02,17.80
2010,08,05,08,03,17.90
2010,08,05,08,04,17.90
2010,08,05,08,05,17.90
2010,08,05,08,06,18.00
2010,08,05,08,07,18.10
2010,08,05,08,08,18.10
2010,08,05,08,09,18.10
2010,08,05,08,10,18.20
2010,08,05,08,11,18.20
2010,08,05,08,12,18.20
2010,08,05,08,13,18.20
2010,08,05,08,14,18.20
2010,08,05,08,15,18.20
2010,08,05,08,16,18.30
2010,08,05,08,17,18.30
2010,08,05,08,18,18.40
2010,08,05,08,19,18.40
2010,08,05,08,20,18.40
2010,08,05,08,21,18.50
2010,08,05,08,22,18.50
2010,08,05,08,23,18.60
2010,08,05,08,24,18.60
2010,08,05,08,25,18.60
2010,08,05,08,26,18.70
2010,08,05,08,27,18.70
2010,08,05,08,28,18.80
2010,08,05,08,29,18.90
2010,08,05,08,30,18.90
2010,08,05,08,31,18.90
2010,08,05,08,32,19.00
2010,08,05,08,33,19.10
2010,08,05,08,34,19.20
2010,08,05,08,35,19.20
2010,08,05,08,36,19.30
2010,08,05,08,37,19.40
2010,08,05,08,38,19.40
2010,08,05,08,39,19.40
2010,08,05,08,40,19.50
2010,08,05,08,41,19.50
2010,08,05,08,42,19.50
2010,08,05,08,43,19.60
2010,08,05,08,44,19.60
2010,08,05,08,45,19.70
2010,08,05,08,46,19.70
2010,08,05,08,47,19.70
2010,08,05,08,48,19.80
2010,08,05,08,49,19.80
2010,08,05,08,50,19.80
2010,08,05,08,51,19.80
2010,08,05,08,52,19.80
2010,08,05,08,53,19.80
2010,08,05,08,54,19.80
2010,08,05,08,55,19.80
2010,08,05,08,56,19.80
2010,08,05,08,57,19.80
2010,08,05,08,58,19.80
2010,08,05,08,59,19.90
2010,08,05,09,00,19.90
2010,08,05,09,01,19.90
2010,08,05,09,02,19.90
2010,08,05,09,03,19.90
2010,08,05,09,04,19.90
2010,08,05,09,05,19.90
2010,08,05,09,06,19.90
2010,08,05,09,07,20.00
2010,08,05,09,08,20.10
2010,08,05,09,09,20.10
2010,08,05,09,10,20.10
2010,08,05,09,11,20.20
2010,08,05,09,12,20.20
2010,08,05,09,13,20.20
2010,08,05,09,14,20.20
2010,08,05,09,15,20.30
2010,08,05,09,16,20.30
2010,08,05,09,17,20.40
2010,08,05,09,18,20.50
2010,08,05,09,19,20.50
2010,08,05,09,20,20.50
2010,08,05,09,21,20.60
2010,08,05,09,22,20.70
2010,08,05,09,23,20.70
2010,08,05,09,24,20.70
2010,08,05,09,25,20.80
2010,08,05,09,26,20.80
2010,08,05,09,27,20.90
2010,08,05,09,28,20.90
2010,08,05,09,29,21.00
2010,08,05,09,30,21.00
2010,08,05,09,31,21.10
2010,08,05,09,32,21.10
2010,08,05,09,33,21.20
2010,08,05,09,34,21.20
2010,08,05,09,35,21.30
2010,08,05,09,36,21.30
2010,08,05,09,37,21.30
2010,08,05,09,38,21.20
2010,08,05,09,39,21.20
2010,08,05,09,40,21.10
2010,08,05,09,41,21.10
2010,08,05,09,42,21.20
2010,08,05,09,43,21.20
2010,08,05,09,44,21.20
2010,08,05,09,45,21.20
2010,08,05,09,46,21.30
2010,08,05,09,47,21.30
2010,08,05,09,48,21.30
2010,08,05,09,49,21.30
2010,08,05,09,50,21.40
2010,08,05,09,51,21.40
2010,08,05,09,52,21.50
2010,08,05,09,53,21.60
2010,08,05,09,54,21.60
2010,08,05,09,55,21.60
2010,08,05,09,56,21.60
2010,08,05,09,57,21.70
2010,08,05,09,58,21.70
2010,08,05,09,59,21.60
2010,08,05,10,00,21.60
2010,08,05,10,01,21.60
2010,08,05,10,02,21.60
2010,08,05,10,03,21.60
2010,08,05,10,04,21.50
2010,08,05,10,05,21.40
2010,08,05,10,06,21.30
2010,08,05,10,07,21.10
2010,08,05,10,08,20.80
2010,08,05,10,09,20.60
2010,08,05,10,10,20.40
2010,08,05,10,11,20.20
2010,08,05,10,12,20.00
2010,08,05,10,13,19.70
2010,08,05,10,14,19.50
2010,08,05,10,15,19.30
2010,08,05,10,16,19.20
2010,08,05,10,17,19.10
2010,08,05,10,18,19.10
2010,08,05,10,19,19.10
2010,08,05,10,20,19.10
2010,08,05,10,21,19.20
2010,08,05,10,22,19.30
2010,08,05,10,23,19.40
2010,08,05,10,24,19.50
2010,08,05,10,25,19.60
2010,08,05,10,26,19.70
2010,08,05,10,27,19.90
2010,08,05,10,28,20.00
2010,08,05,10,29,20.20
2010,08,05,10,30,20.40
2010,08,05,10,31,20.60
2010,08,05,10,32,20.70
2010,08,05,10,33,20.80
2010,08,05,10,34,20.90
2010,08,05,10,35,21.00
2010,08,05,10,36,21.10
2010,08,05,10,37,21.10
2010,08,05,10,38,21.10
2010,08,05,10,39,21.20
2010,08,05,10,40,21.20
2010,08,05,10,41,21.20
2010,08,05,10,42,21.10
2010,08,05,10,43,21.10
2010,08,05,10,44,21.10
2010,08,05,10,45,21.10
2010,08,05,10,46,21.20
2010,08,05,10,47,21.20
2010,08,05,10,48,21.30
2010,08,05,10,49,21.30
2010,08,05,10,50,21.40
2010,08,05,10,51,21.50
2010,08,05,10,52,21.60
2010,08,05,10,53,21.60
2010,08,05,10,54,21.60
2010,08,05,10,55,21.70
2010,08,05,10,56,21.70
2010,08,05,10,57,21.70
2010,08,05,10,58,21.80
2010,08,05,10,59,21.80
2010,08,05,11,00,21.90
2010,08,05,11,01,21.90
2010,08,05,11,02,22.00
2010,08,05,11,03,22.00
2010,08,05,11,04,22.10
2010,08,05,11,05,22.00
2010,08,05,11,06,21.70
2010,08,05,11,07,21.40
2010,08,05,11,08,21.20
2010,08,05,11,09,21.00
2010,08,05,11,10,20.80
2010,08,05,11,11,20.70
2010,08,05,11,12,20.50
2010,08,05,11,13,20.30
2010,08,05,11,14,20.00
2010,08,05,11,15,19.80
2010,08,05,11,16,19.60
2010,08,05,11,17,19.40
2010,08,05,11,18,19.40
2010,08,05,11,19,19.50
2010,08,05,11,20,19.60
2010,08,05,11,21,19.60
2010,08,05,11,22,19.70
2010,08,05,11,23,19.80
2010,08,05,11,24,19.80
2010,08,05,11,25,19.80
2010,08,05,11,26,19.80
2010,08,05,11,27,19.90
2010,08,05,11,28,20.00
2010,08,05,11,29,20.10
2010,08,05,11,30,20.20
2010,08,05,11,31,20.30
2010,08,05,11,32,20.50
2010,08,05,11,33,20.70
2010,08,05,11,34,20.90
2010,08,05,11,35,21.20
2010,08,05,11,36,21.30
2010,08,05,11,37,21.50
2010,08,05,11,38,21.60
2010,08,05,11,39,21.70
2010,08,05,11,40,21.80
2010,08,05,11,41,22.00
2010,08,05,11,42,22.00
2010,08,05,11,43,21.80
2010,08,05,11,44,21.60
2010,08,05,11,45,21.50
2010,08,05,11,46,21.40
2010,08,05,11,47,21.40
2010,08,05,11,48,21.50
2010,08,05,11,49,21.50
2010,08,05,11,50,21.40
2010,08,05,11,51,21.30
2010,08,05,11,52,21.10
2010,08,05,11,53,21.00
2010,08,05,11,54,20.90
2010,08,05,11,55,20.80
2010,08,05,11,56,20.70
2010,08,05,11,57,20.60
2010,08,05,11,58,20.50
2010,08,05,11,59,20.40
2010,08,05,12,00,20.30
2010,08,05,12,01,20.20
2010,08,05,12,02,20.20
2010,08,05,12,03,20.20
2010,08,05,12,04,20.20
2010,08,05,12,05,20.30
2010,08,05,12,06,20.30
2010,08,05,12,07,20.40
2010,08,05,12,08,20.40
2010,08,05,12,09,20.50
2010,08,05,12,10,20.60
2010,08,05,12,11,20.70
2010,08,05,12,12,20.70
2010,08,05,12,13,20.80
2010,08,05,12,14,21.00
2010,08,05,12,15,21.10
2010,08,05,12,16,21.20
2010,08,05,12,17,21.30
2010,08,05,12,18,21.30
2010,08,05,12,19,21.30
2010,08,05,12,20,21.40
2010,08,05,12,21,21.50
2010,08,05,12,22,21.60
2010,08,05,12,23,21.60
2010,08,05,12,24,21.70
2010,08,05,12,25,21.80
2010,08,05,12,26,21.90
2010,08,05,12,27,22.10
2010,08,05,12,28,22.30
2010,08,05,12,29,22.40
2010,08,05,12,30,22.60
2010,08,05,12,31,22.80
2010,08,05,12,32,22.90
2010,08,05,12,33,23.20
2010,08,05,12,34,23.40
2010,08,05,12,35,23.60
2010,08,05,12,36,23.80
2010,08,05,12,37,23.80
2010,08,05,12,38,23.60
2010,08,05,12,39,23.40
2010,08,05,12,40,23.30
2010,08,05,12,41,23.20
2010,08,05,12,42,23.20
2010,08,05,12,43,23.10
2010,08,05,12,44,23.00
2010,08,05,12,45,22.90
2010,08,05,12,46,22.80
2010,08,05,12,47,22.70
2010,08,05,12,48,22.60
2010,08,05,12,49,22.50
2010,08,05,12,50,22.50
2010,08,05,12,51,22.60
2010,08,05,12,52,22.60
2010,08,05,12,53,22.60
2010,08,05,12,54,22.60
2010,08,05,12,55,22.60
2010,08,05,12,56,22.50
2010,08,05,12,57,22.60
2010,08,05,12,58,22.60
2010,08,05,12,59,22.70
2010,08,05,13,00,22.70
2010,08,05,13,01,22.70
2010,08,05,13,02,22.70
2010,08,05,13,03,22.60
2010,08,05,13,04,22.60
2010,08,05,13,05,22.60
2010,08,05,13,06,22.60
2010,08,05,13,07,22.60
2010,08,05,13,08,22.50
2010,08,05,13,09,22.50
2010,08,05,13,10,22.40
2010,08,05,13,11,22.30
2010,08,05,13,12,22.30
2010,08,05,13,13,22.40
2010,08,05,13,14,22.50
2010,08,05,13,15,22.60
2010,08,05,13,16,22.70
2010,08,05,13,17,22.60
2010,08,05,13,18,22.70
2010,08,05,13,19,22.70
2010,08,05,13,20,22.70
2010,08,05,13,21,22.80
2010,08,05,13,22,23.00
2010,08,05,13,23,23.20
2010,08,05,13,24,23.30
2010,08,05,13,25,23.50
2010,08,05,13,26,23.70
2010,08,05,13,27,23.80
2010,08,05,13,28,24.00
2010,08,05,13,29,24.20
2010,08,05,13,30,24.40
2010,08,05,13,31,24.50
2010,08,05,13,32,24.50
2010,08,05,13,33,24.50
2010,08,05,13,34,24.60
2010,08,05,13,35,24.60
2010,08,05,13,36,24.60
2010,08,05,13,37,24.50
2010,08,05,13,38,24.50
2010,08,05,13,39,24.50
2010,08,05,13,40,24.50
2010,08,05,13,41,24.40
2010,08,05,13,42,24.40
2010,08,05,13,43,24.40
2010,08,05,13,44,24.40
2010,08,05,13,45,24.30
2010,08,05,13,46,24.20
2010,08,05,13,47,24.20
2010,08,05,13,48,24.20
2010,08,05,13,49,24.10
2010,08,05,13,50,24.10
2010,08,05,13,51,24.00
2010,08,05,13,52,23.90
2010,08,05,13,53,24.00
2010,08,05,13,54,24.10
2010,08,05,13,55,24.10
2010,08,05,13,56,24.10
2010,08,05,13,57,24.20
2010,08,05,13,58,24.20
2010,08,05,13,59,24.30
2010,08,05,14,00,24.30
2010,08,05,14,01,24.40
2010,08,05,14,02,24.50
2010,08,05,14,03,24.60
2010,08,05,14,04,24.60
2010,08,05,14,05,24.60
2010,08,05,14,06,24.60
2010,08,05,14,07,24.60
2010,08,05,14,08,24.60
2010,08,05,14,09,24.60
2010,08,05,14,10,24.70
2010,08,05,14,11,24.80
2010,08,05,14,12,24.90
2010,08,05,14,13,24.90
2010,08,05,14,14,24.90
2010,08,05,14,15,24.90
2010,08,05,14,16,24.90
2010,08,05,14,17,24.90
2010,08,05,14,18,24.90
2010,08,05,14,19,24.90
2010,08,05,14,20,24.90
2010,08,05,14,21,24.80
2010,08,05,14,22,24.80
2010,08,05,14,23,24.80
2010,08,05,14,24,24.80
2010,08,05,14,25,24.80
2010,08,05,14,26,24.90
2010,08,05,14,27,24.90
2010,08,05,14,28,24.90
2010,08,05,14,29,24.90
2010,08,05,14,30,25.00
2010,08,05,14,31,25.00
2010,08,05,14,32,25.00
2010,08,05,14,33,25.00
2010,08,05,14,34,25.00
2010,08,05,14,35,24.90
2010,08,05,14,36,24.90
2010,08,05,14,37,24.80
2010,08,05,14,38,24.70
2010,08,05,14,39,24.60
2010,08,05,14,40,24.70
2010,08,05,14,41,24.70
2010,08,05,14,42,24.70
2010,08,05,14,43,24.70
2010,08,05,14,44,24.70
2010,08,05,14,45,24.60
2010,08,05,14,46,24.60
2010,08,05,14,47,24.70
2010,08,05,14,48,24.70
2010,08,05,14,49,24.70
2010,08,05,14,50,24.70
2010,08,05,14,51,24.60
2010,08,05,14,52,24.60
2010,08,05,14,53,24.50
2010,08,05,14,54,24.40
2010,08,05,14,55,24.40
2010,08,05,14,56,24.30
2010,08,05,14,57,24.20
2010,08,05,14,58,24.20
2010,08,05,14,59,24.20
2010,08,05,15,00,24.20
2010,08,05,15,01,24.30
2010,08,05,15,02,24.40
2010,08,05,15,03,24.50
2010,08,05,15,04,24.60
2010,08,05,15,05,24.70
2010,08,05,15,06,24.80
2010,08,05,15,07,24.80
2010,08,05,15,08,24.90
2010,08,05,15,09,24.90
2010,08,05,15,10,24.90
2010,08,05,15,11,25.00
2010,08,05,15,12,25.00
2010,08,05,15,13,25.10
2010,08,05,15,14,25.10
2010,08,05,15,15,25.10
2010,08,05,15,16,25.10
2010,08,05,15,17,25.10
2010,08,05,15,18,25.10
2010,08,05,15,19,25.10
2010,08,05,15,20,25.10
2010,08,05,15,21,25.10
2010,08,05,15,22,25.20
2010,08,05,15,23,25.20
2010,08,05,15,24,25.30
2010,08,05,15,25,25.40
2010,08,05,15,26,25.40
2010,08,05,15,27,25.40
2010,08,05,15,28,25.50
2010,08,05,15,29,25.50
2010,08,05,15,30,25.50
2010,08,05,15,31,25.50
2010,08,05,15,32,25.50
2010,08,05,15,33,25.50
2010,08,05,15,34,25.50
2010,08,05,15,35,25.60
2010,08,05,15,36,25.60
2010,08,05,15,37,25.60
2010,08,05,15,38,25.60
2010,08,05,15,39,25.60
2010,08,05,15,40,25.60
2010,08,05,15,41,25.70
2010,08,05,15,42,25.70
2010,08,05,15,43,25.70
2010,08,05,15,44,25.70
2010,08,05,15,45,25.60
2010,08,05,15,46,25.50
2010,08,05,15,47,25.60
2010,08,05,15,48,25.70
2010,08,05,15,49,25.70
2010,08,05,15,50,25.80
2010,08,05,15,51,25.80
2010,08,05,15,52,25.90
2010,08,05,15,53,25.90
2010,08,05,15,54,26.00
2010,08,05,15,55,26.00
2010,08,05,15,56,26.00
2010,08,05,15,57,26.00
2010,08,05,15,58,26.00
2010,08,05,15,59,25.90
2010,08,05,16,00,25.90
2010,08,05,16,01,25.90
2010,08,05,16,02,25.80
2010,08,05,16,03,25.80
2010,08,05,16,04,25.80
2010,08,05,16,05,25.80
2010,08,05,16,06,25.80
2010,08,05,16,07,25.70
2010,08,05,16,08,25.70
2010,08,05,16,09,25.70
2010,08,05,16,10,25.60
2010,08,05,16,11,25.50
2010,08,05,16,12,25.60
2010,08,05,16,13,25.70
2010,08,05,16,14,25.80
2010,08,05,16,15,25.80
2010,08,05,16,16,25.90
2010,08,05,16,17,25.90
2010,08,05,16,18,25.90
2010,08,05,16,19,26.00
2010,08,05,16,20,26.00
2010,08,05,16,21,26.10
2010,08,05,16,22,26.20
2010,08,05,16,23,26.30
2010,08,05,16,24,26.40
2010,08,05,16,25,26.50
2010,08,05,16,26,26.60
2010,08,05,16,27,26.50
2010,08,05,16,28,26.50
2010,08,05,16,29,26.60
2010,08,05,16,30,26.60
2010,08,05,16,31,26.70
2010,08,05,16,32,26.70
2010,08,05,16,33,26.80
2010,08,05,16,34,26.80
2010,08,05,16,35,26.70
2010,08,05,16,36,26.60
2010,08,05,16,37,26.60
2010,08,05,16,38,26.60
2010,08,05,16,39,26.60
2010,08,05,16,40,26.60
2010,08,05,16,41,26.60
2010,08,05,16,42,26.60
2010,08,05,16,43,26.60
2010,08,05,16,44,26.60
2010,08,05,16,45,26.50
2010,08,05,16,46,26.40
2010,08,05,16,47,26.30
2010,08,05,16,48,26.10
2010,08,05,16,49,26.00
2010,08,05,16,50,25.90
2010,08,05,16,51,25.80
2010,08,05,16,52,25.60
2010,08,05,16,53,25.50
2010,08,05,16,54,25.40
2010,08,05,16,55,25.30
2010,08,05,16,56,25.20
2010,08,05,16,57,25.10
2010,08,05,16,58,25.10
2010,08,05,16,59,24.90
2010,08,05,17,00,24.80
2010,08,05,17,01,24.60
2010,08,05,17,02,24.50
2010,08,05,17,03,24.40
2010,08,05,17,04,24.20
2010,08,05,17,05,24.10
2010,08,05,17,06,24.10
2010,08,05,17,07,23.90
2010,08,05,17,08,23.80
2010,08,05,17,09,23.80
2010,08,05,17,10,23.80
2010,08,05,17,11,23.80
2010,08,05,17,12,23.80
2010,08,05,17,13,23.80
2010,08,05,17,14,23.80
2010,08,05,17,15,23.80
2010,08,05,17,16,23.80
2010,08,05,17,17,23.70
2010,08,05,17,18,23.60
2010,08,05,17,19,23.40